Temp
-34 -34 -34 -34 -34 -33 -33 -33 -33 -33 -33 -33 -33 -33 -33 -33 -33 -33 -32 -32 -32 -32 -32 -32 -31 -31 -31 -31 -30 -30 -30 -29 -29 -28 -28 -27 -27 -26 -26 -25 -25 -24 -23 -23 -23 -23 -23 -23 -23 -23 -23 -23 -23 -23 -23 -23 -23 -23 -22 -22 -21 -21 -21
-34 -34 -34 -34 -34 -34 -34 -34 -34 -34 -33 -33 -33 -33 -33 -33 -33 -33 -33 -33 -33 -33 -32 -32 -32 -32 -32 -32 -31 -31 -31 -31 -30 -30 -29 -29 -29 -28 -27 -27 -26 -25 -24 -23 -23 -24 -23 -23 -24 -23 -23 -23 -23 -23 -24 -24 -24 -24 -23 -23 -22 -22 -21
-34 -34 -34 -34 -34 -34 -34 -34 -34 -34 -34 -34 -34 -34 -33 -33 -33 -33 -33 -33 -33 -33 -33 -33 -33 -33 -32 -32 -32 -32 -32 -32 -31 -31 -31 -30 -30 -30 -29 -28 -27 -26 -25 -24 -24 -24 -24 -24 -24 -24 -23 -23 -23 -23 -23 -24 -24 -24 -24 -24 -24 -23 -22
-35 -35 -34 -34 -34 -34 -34 -34 -34 -34 -34 -34 -34 -34 -34 -34 -34 -33 -33 -33 -33 -33 -33 -33 -33 -33 -33 -33 -33 -32 -32 -32 -32 -32 -32 -31 -31 -31 -30 -30 -29 -28 -27 -25 -25 -25 -25 -24 -24 -24 -24 -24 -24 -24 -23 -24 -24 -24 -25 -25 -25 -24 -24
-35 -35 -35 -35 -35 -35 -34 -34 -34 -34 -34 -34 -34 -34 -34 -34 -34 -34 -34 -33 -33 -33 -33 -33 -33 -33 -33 -33 -33 -33 -33 -33 -33 -32 -32 -32 -32 -32 -31 -31 -31 -30 -29 -27 -26 -26 -26 -26 -25 -25 -24 -24 -24 -24 -24 -24 -24 -24 -24 -25 -25 -25 -25
-36 -36 -36 -36 -36 -35 -35 -35 -35 -35 -35 -34 -34 -34 -34 -34 -34 -34 -34 -34 -34 -33 -33 -33 -33 -33 -33 -33 -33 -33 -33 -33 -33 -33 -33 -32 -32 -32 -32 -32 -31 -31 -30 -29 -28 -27 -27 -27 -27 -26 -26 -25 -25 -25 -24 -24 -24 -24 -24 -25 -25 -25 -26
-37 -37 -37 -37 -36 -36 -36 -36 -36 -36 -35 -35 -35 -35 -35 -34 -34 -34 -34 -34 -34 -34 -34 -33 -33 -33 -33 -33 -33 -33 -33 -33 -33 -33 -33 -32 -32 -32 -32 -32 -32 -32 -31 -31 -30 -29 -28 -27 -27 -27 -27 -26 -26 -26 -25 -25 -25 -24 -24 -25 -25 -25 -26
-37 -37 -37 -37 -37 -37 -37 -37 -36 -36 -36 -36 -36 -36 -35 -35 -35 -35 -34 -34 -34 -34 -34 -34 -34 -33 -33 -33 -33 -33 -33 -33 -33 -33 -32 -32 -32 -32 -32 -32 -32 -32 -32 -31 -31 -30 -30 -29 -28 -28 -28 -28 -27 -27 -27 -26 -26 -25 -25 -25 -25 -25 -26
-38 -38 -37 -37 -37 -37 -37 -37 -37 -37 -37 -37 -37 -36 -36 -36 -36 -35 -35 -35 -34 -34 -34 -34 -34 -34 -34 -34 -33 -33 -33 -33 -33 -33 -33 -33 -32 -32 -32 -32 -32 -32 -32 -32 -31 -31 -31 -30 -30 -29 -29 -29 -28 -28 -28 -27 -27 -27 -26 -26 -26 -26 -26
-38 -38 -38 -38 -38 -38 -38 -38 -38 -38 -38 -38 -37 -37 -37 -37 -36 -36 -36 -35 -35 -35 -35 -34 -34 -34 -34 -34 -34 -34 -33 -33 -33 -33 -33 -33 -33 -32 -32 -32 -32 -32 -32 -32 -32 -31 -31 -31 -31 -30 -30 -30 -29 -29 -29 -28 -28 -28 -28 -27 -27 -27 -27
-39 -39 -39 -39 -38 -38 -38 -38 -38 -38 -38 -38 -38 -38 -38 -37 -37 -37 -37 -36 -36 -36 -36 -35 -35 -35 -34 -34 -34 -34 -34 -33 -33 -33 -33 -33 -33 -33 -33 -32 -32 -32 -32 -32 -32 -31 -31 -31 -31 -31 -31 -31 -30 -30 -30 -29 -29 -29 -29 -28 -28 -28 -28
-39 -39 -39 -39 -39 -39 -39 -39 -39 -39 -39 -39 -39 -39 -38 -38 -37 -37 -37 -37 -37 -37 -37 -36 -36 -36 -35 -35 -35 -34 -34 -34 -34 -33 -33 -33 -33 -33 -33 -32 -32 -32 -32 -32 -32 -32 -31 -31 -31 -31 -31 -31 -31 -31 -31 -30 -30 -29 -29 -29 -29 -28 -29
-40 -40 -40 -40 -40 -40 -40 -40 -40 -40 -40 -40 -40 -40 -40 -39 -38 -38 -38 -38 -38 -38 -38 -37 -37 -37 -37 -36 -36 -36 -35 -35 -34 -34 -34 -33 -33 -33 -33 -33 -32 -32 -32 -32 -32 -32 -32 -31 -31 -31 -31 -31 -31 -31 -31 -31 -31 -30 -30 -30 -30 -29 -29
-40 -41 -41 -41 -41 -41 -41 -42 -42 -42 -42 -42 -42 -42 -41 -41 -40 -40 -40 -40 -39 -39 -39 -38 -38 -38 -37 -37 -37 -37 -36 -36 -35 -35 -34 -34 -33 -33 -33 -32 -32 -32 -32 -32 -32 -32 -32 -32 -32 -31 -31 -31 -31 -31 -31 -31 -31 -31 -30 -30 -30 -30 -30
-41 -41 -42 -42 -42 -42 -43 -43 -43 -43 -43 -43 -43 -43 -43 -42 -42 -42 -41 -41 -41 -41 -40 -40 -40 -39 -38 -38 -38 -37 -37 -37 -36 -36 -35 -34 -34 -33 -33 -33 -32 -32 -32 -32 -32 -32 -32 -32 -32 -32 -32 -31 -32 -32 -31 -31 -31 -31 -31 -31 -31 -30 -30
-42 -42 -43 -43 -43 -43 -43 -44 -44 -43 -43 -43 -43 -44 -43 -43 -43 -43 -42 -42 -42 -42 -42 -41 -41 -40 -39 -39 -38 -38 -38 -37 -37 -36 -35 -35 -35 -34 -34 -34 -33 -33 -33 -33 -32 -32 -32 -32 -32 -32 -32 -32 -32 -32 -32 -32 -32 -32 -31 -31 -31 -31 -30
-43 -43 -44 -44 -44 -44 -44 -44 -44 -44 -44 -44 -44 -44 -44 -44 -43 -43 -43 -43 -43 -43 -43 -42 -42 -41 -41 -40 -39 -39 -38 -38 -38 -37 -36 -35 -35 -35 -35 -35 -34 -34 -34 -33 -33 -32 -32 -32 -32 -32 -32 -32 -32 -32 -32 -32 -32 -32 -31 -31 -31 -31 -31
-43 -44 -44 -44 -44 -44 -44 -44 -44 -44 -44 -45 -45 -45 -44 -44 -44 -44 -44 -44 -44 -43 -43 -43 -43 -42 -41 -41 -40 -39 -39 -39 -38 -38 -37 -36 -36 -36 -36 -36 -35 -35 -35 -34 -34 -33 -33 -32 -32 -32 -32 -31 -31 -32 -32 -31 -31 -32 -31 -31 -31 -31 -31
-43 -44 -45 -45 -45 -45 -44 -44 -44 -44 -44 -45 -45 -45 -45 -44 -44 -44 -44 -44 -43 -43 -43 -43 -43 -42 -42 -41 -40 -40 -39 -39 -39 -38 -38 -37 -37 -37 -36 -37 -37 -36 -36 -36 -35 -35 -34 -33 -33 -33 -32 -32 -32 -32 -32 -31 -31 -31 -31 -31 -31 -31 -31
-44 -44 -45 -45 -45 -45 -45 -44 -44 -44 -45 -45 -45 -45 -45 -44 -44 -44 -44 -43 -43 -43 -43 -43 -43 -42 -42 -41 -40 -40 -40 -39 -39 -39 -38 -38 -38 -37 -37 -38 -38 -37 -37 -37 -36 -36 -35 -35 -34 -34 -33 -33 -33 -33 -32 -32 -32 -31 -31 -31 -31 -31 -31
-44 -45 -45 -46 -46 -45 -45 -44 -44 -44 -44 -45 -45 -45 -45 -44 -44 -44 -44 -43 -43 -43 -43 -43 -43 -42 -42 -42 -41 -41 -40 -40 -40 -39 -39 -38 -38 -38 -38 -38 -38 -38 -38 -37 -37 -36 -36 -36 -35 -35 -35 -34 -34 -34 -34 -33 -33 -32 -32 -32 -32 -31 -31
-44 -45 -45 -46 -46 -46 -45 -45 -44 -44 -44 -44 -45 -45 -45 -44 -45 -44 -44 -43 -43 -43 -43 -43 -42 -42 -42 -42 -41 -41 -41 -40 -40 -40 -39 -39 -39 -39 -39 -39 -39 -39 -38 -38 -38 -37 -37 -37 -36 -36 -36 -35 -35 -35 -35 -35 -34 -34 -34 -33 -33 -32 -32
-45 -45 -45 -46 -46 -46 -45 -45 -44 -44 -44 -44 -45 -45 -45 -45 -45 -45 -44 -44 -43 -43 -43 -42 -42 -42 -42 -41 -41 -41 -40 -40 -40 -40 -39 -39 -39 -40 -40 -39 -39 -39 -39 -38 -38 -38 -38 -37 -37 -37 -37 -36 -36 -36 -36 -36 -36 -35 -35 -34 -34 -34 -33
-45 -45 -45 -46 -46 -46 -46 -45 -44 -44 -44 -44 -45 -45 -45 -45 -45 -45 -44 -44 -43 -43 -42 -42 -42 -42 -42 -41 -41 -40 -40 -40 -40 -40 -40 -40 -40 -40 -40 -40 -39 -39 -39 -39 -39 -39 -38 -38 -38 -38 -38 -38 -38 -38 -38 -37 -37 -37 -36 -36 -35 -35 -35
-45 -45 -45 -46 -46 -46 -46 -45 -45 -44 -44 -45 -45 -45 -45 -45 -45 -45 -44 -43 -43 -43 -42 -42 -42 -42 -42 -42 -41 -40 -40 -40 -40 -40 -40 -40 -40 -40 -41 -40 -40 -40 -40 -40 -40 -40 -39 -39 -39 -39 -39 -39 -39 -39 -39 -38 -38 -38 -37 -37 -37 -37 -36
-44 -45 -45 -46 -46 -46 -46 -45 -45 -44 -45 -45 -45 -45 -45 -45 -45 -44 -44 -43 -43 -43 -43 -43 -43 -42 -42 -41 -41 -40 -40 -40 -40 -40 -40 -40 -40 -41 -41 -41 -40 -40 -40 -40 -40 -40 -40 -40 -40 -40 -40 -40 -40 -39 -39 -39 -39 -38 -38 -38 -38 -37 -37
-44 -44 -45 -45 -46 -46 -46 -46 -45 -44 -45 -45 -45 -45 -45 -45 -45 -44 -44 -43 -43 -43 -43 -44 -43 -42 -41 -41 -40 -40 -40 -40 -40 -40 -40 -40 -40 -41 -41 -40 -40 -40 -40 -40 -40 -40 -40 -40 -40 -40 -40 -40 -40 -40 -40 -40 -40 -39 -39 -39 -39 -38 -38
-44 -44 -44 -45 -45 -46 -46 -46 -45 -45 -45 -45 -45 -45 -45 -45 -44 -44 -44 -44 -44 -44 -44 -43 -42 -41 -41 -40 -40 -39 -39 -39 -40 -40 -39 -39 -40 -40 -40 -40 -40 -40 -40 -40 -40 -40 -40 -40 -40 -40 -40 -40 -40 -40 -40 -40 -40 -40 -40 -40 -39 -39 -39
-43 -43 -44 -44 -45 -45 -45 -46 -46 -45 -45 -45 -45 -45 -45 -45 -45 -44 -44 -44 -44 -44 -44 -43 -41 -41 -40 -40 -40 -39 -39 -39 -39 -39 -39 -40 -40 -40 -40 -40 -40 -40 -40 -40 -40 -40 -40 -40 -40 -40 -40 -40 -40 -40 -40 -40 -40 -40 -40 -40 -40 -39 -39
-43 -43 -43 -44 -45 -45 -45 -45 -45 -45 -45 -45 -45 -45 -45 -45 -45 -45 -44 -44 -44 -44 -43 -42 -41 -40 -40 -40 -40 -40 -39 -39 -39 -39 -39 -40 -40 -40 -40 -40 -39 -39 -40 -40 -40 -40 -40 -40 -40 -40 -40 -40 -40 -40 -40 -40 -40 -40 -40 -39 -39 -39 -39
-44 -44 -43 -43 -44 -45 -45 -45 -45 -45 -45 -45 -45 -45 -45 -44 -44 -44 -44 -44 -44 -43 -42 -41 -41 -40 -40 -40 -40 -39 -39 -39 -39 -39 -39 -39 -40 -40 -39 -39 -39 -39 -39 -39 -39 -39 -39 -39 -39 -39 -39 -39 -39 -39 -39 -39 -39 -39 -39 -39 -39 -39 -38
-44 -44 -44 -44 -44 -44 -45 -45 -45 -45 -45 -45 -45 -45 -45 -44 -44 -44 -44 -44 -43 -42 -42 -41 -40 -40 -40 -40 -39 -39 -39 -39 -39 -39 -39 -39 -39 -39 -39 -39 -39 -39 -39 -39 -39 -39 -39 -39 -39 -39 -39 -39 -39 -39 -39 -39 -39 -39 -38 -38 -38 -38 -38
-43 -44 -44 -44 -44 -44 -44 -44 -44 -45 -45 -44 -44 -44 -44 -44 -44 -43 -43 -43 -42 -42 -42 -41 -40 -40 -40 -40 -39 -39 -39 -39 -39 -39 -39 -39 -39 -39 -39 -39 -39 -39 -39 -39 -39 -39 -39 -39 -39 -39 -39 -39 -39 -39 -39 -39 -38 -38 -38 -38 -38 -38 -38
-44 -44 -44 -44 -44 -44 -44 -45 -44 -44 -44 -44 -44 -44 -44 -44 -43 -43 -43 -42 -42 -42 -42 -41 -40 -40 -40 -40 -40 -39 -39 -39 -39 -39 -39 -39 -39 -39 -39 -39 -39 -39 -39 -39 -39 -39 -39 -39 -39 -39 -38 -38 -38 -38 -38 -39 -38 -38 -38 -38 -38 -38 -38
-44 -44 -44 -44 -44 -44 -44 -45 -45 -44 -44 -44 -44 -44 -43 -43 -43 -43 -43 -42 -42 -42 -42 -41 -41 -40 -40 -40 -40 -40 -39 -39 -39 -39 -39 -39 -39 -39 -39 -39 -39 -39 -38 -38 -38 -38 -38 -38 -38 -38 -38 -38 -38 -38 -38 -38 -38 -38 -38 -38 -38 -38 -38
-44 -44 -44 -44 -44 -44 -44 -44 -44 -44 -44 -44 -44 -43 -43 -43 -43 -43 -42 -42 -42 -42 -42 -41 -41 -40 -40 -40 -40 -40 -40 -39 -39 -39 -39 -39 -39 -39 -39 -39 -38 -38 -38 -38 -38 -38 -38 -38 -38 -38 -38 -38 -38 -38 -38 -38 -38 -38 -38 -38 -38 -37 -37
Height
5313 5311 5309 5307 5304 5303 5301 5299 5297 5295 5294 5294 5293 5292 5291 5290 5290 5289 5290 5290 5290 5290 5289 5290 5291 5292 5293 5292 5293 5295 5296 5297 5299 5301 5303 5305 5307 5311 5314 5317 5317 5322 5337 5347 5349 5358 5367 5367 5368 5372 5376 5380 5383 5385 5388 5391 5394 5398 5402 5407 5412 5417 5423
5300 5297 5294 5292 5290 5287 5285 5284 5282 5281 5280 5279 5279 5277 5276 5276 5275 5275 5276 5276 5276 5276 5275 5276 5277 5278 5278 5278 5279 5281 5282 5283 5284 5285 5288 5290 5290 5294 5297 5299 5300 5305 5315 5325 5329 5338 5350 5355 5353 5357 5363 5364 5367 5372 5375 5377 5381 5385 5388 5392 5397 5402 5408
5285 5282 5279 5277 5275 5272 5270 5268 5267 5266 5265 5264 5263 5262 5261 5261 5260 5260 5261 5262 5262 5262 5262 5262 5264 5264 5264 5264 5266 5268 5268 5269 5270 5270 5272 5275 5275 5278 5281 5282 5284 5289 5296 5304 5309 5315 5330 5340 5338 5341 5349 5349 5351 5359 5361 5364 5369 5372 5375 5379 5383 5388 5393
5269 5266 5263 5261 5258 5256 5254 5252 5251 5250 5249 5247 5246 5246 5245 5245 5245 5245 5246 5246 5247 5248 5248 5248 5250 5251 5250 5250 5252 5255 5256 5256 5256 5257 5257 5259 5261 5263 5266 5268 5269 5273 5278 5284 5289 5296 5310 5321 5320 5324 5335 5336 5336 5343 5347 5350 5355 5359 5361 5366 5370 5374 5378
5252 5249 5246 5243 5241 5239 5237 5235 5234 5233 5232 5230 5228 5227 5228 5228 5229 5229 5230 5230 5231 5232 5233 5234 5236 5237 5237 5237 5240 5242 5243 5242 5242 5243 5243 5246 5247 5248 5251 5253 5255 5258 5262 5265 5272 5280 5289 5299 5303 5306 5318 5322 5321 5326 5332 5334 5341 5346 5348 5353 5357 5360 5365
5236 5232 5229 5226 5223 5221 5219 5218 5217 5215 5214 5212 5210 5209 5210 5210 5211 5212 5212 5214 5215 5216 5217 5219 5222 5223 5223 5223 5226 5228 5229 5228 5228 5229 5231 5232 5234 5234 5236 5239 5241 5245 5248 5250 5257 5263 5269 5278 5286 5289 5298 5306 5306 5309 5314 5318 5325 5331 5335 5339 5344 5347 5351
5221 5216 5212 5209 5206 5203 5201 5199 5198 5197 5195 5193 5191 5191 5191 5192 5192 5193 5194 5196 5198 5200 5202 5204 5206 5208 5208 5209 5211 5214 5214 5213 5214 5215 5217 5219 5220 5221 5221 5225 5228 5231 5234 5238 5242 5248 5252 5259 5267 5271 5278 5289 5292 5291 5297 5304 5310 5316 5321 5326 5330 5334 5338
5205 5200 5196 5192 5189 5186 5183 5181 5180 5178 5175 5174 5173 5172 5172 5172 5172 5173 5176 5178 5182 5184 5186 5189 5191 5192 5194 5193 5194 5197 5198 5199 5200 5201 5204 5206 5207 5207 5208 5211 5215 5217 5221 5225 5229 5234 5239 5243 5248 5254 5261 5270 5274 5274 5282 5293 5297 5299 5305 5310 5313 5319 5324
5188 5184 5180 5176 5173 5169 5166 5164 5162 5160 5157 5155 5154 5152 5152 5152 5153 5155 5158 5161 5164 5167 5169 5172 5175 5176 5178 5177 5177 5181 5183 5185 5186 5186 5189 5192 5192 5192 5195 5198 5201 5204 5207 5212 5216 5222 5226 5227 5232 5240 5245 5251 5256 5260 5270 5281 5280 5281 5289 5294 5296 5302 5308
5173 5168 5164 5160 5157 5154 5150 5148 5145 5143 5140 5137 5135 5133 5133 5135 5137 5138 5140 5143 5147 5150 5152 5154 5156 5158 5160 5161 5162 5164 5167 5169 5170 5170 5172 5176 5176 5177 5181 5184 5186 5190 5194 5198 5203 5208 5213 5214 5219 5227 5230 5234 5241 5247 5253 5260 5261 5265 5274 5277 5278 5286 5295
5159 5154 5149 5145 5142 5139 5136 5133 5130 5126 5125 5122 5117 5115 5116 5118 5121 5123 5125 5128 5130 5132 5134 5135 5136 5139 5142 5144 5146 5148 5149 5151 5153 5154 5156 5159 5160 5162 5165 5169 5173 5177 5181 5184 5188 5194 5198 5201 5207 5214 5217 5221 5229 5233 5234 5239 5245 5249 5257 5261 5263 5273 5281
5146 5141 5135 5131 5129 5126 5122 5119 5115 5112 5110 5107 5103 5102 5100 5100 5103 5107 5110 5113 5113 5114 5116 5117 5119 5122 5123 5127 5129 5129 5130 5133 5136 5138 5139 5141 5144 5146 5150 5154 5158 5163 5168 5170 5174 5178 5183 5189 5196 5202 5205 5210 5217 5219 5217 5221 5227 5231 5238 5246 5250 5257 5265
5134 5128 5123 5118 5116 5113 5110 5106 5102 5099 5097 5093 5091 5090 5087 5085 5088 5092 5095 5096 5096 5097 5099 5100 5102 5105 5107 5109 5111 5111 5113 5115 5118 5121 5122 5124 5127 5131 5136 5141 5144 5148 5153 5156 5159 5163 5169 5177 5182 5187 5194 5199 5202 5202 5202 5207 5213 5216 5221 5229 5233 5239 5250
5123 5117 5112 5107 5104 5102 5099 5095 5091 5089 5086 5082 5081 5079 5076 5074 5076 5078 5080 5081 5082 5083 5084 5085 5085 5087 5090 5093 5094 5096 5098 5099 5100 5103 5106 5109 5111 5116 5122 5126 5130 5133 5137 5140 5143 5148 5156 5164 5167 5172 5182 5187 5185 5185 5190 5196 5200 5202 5203 5209 5216 5222 5231
5113 5107 5102 5097 5094 5092 5090 5086 5082 5080 5077 5074 5072 5070 5067 5066 5066 5067 5068 5069 5070 5070 5070 5070 5070 5071 5074 5077 5079 5081 5082 5082 5083 5085 5089 5094 5097 5101 5107 5110 5114 5118 5121 5122 5126 5131 5139 5148 5152 5158 5166 5171 5170 5172 5178 5182 5183 5184 5186 5192 5199 5206 5213
5104 5099 5094 5090 5085 5083 5082 5078 5074 5072 5069 5067 5065 5062 5059 5059 5059 5058 5059 5059 5059 5058 5057 5058 5058 5058 5060 5062 5064 5067 5067 5067 5067 5069 5074 5079 5083 5087 5090 5094 5098 5102 5102 5104 5108 5113 5121 5129 5135 5142 5149 5154 5156 5158 5163 5164 5163 5165 5169 5175 5184 5191 5199
5096 5091 5086 5082 5078 5075 5074 5071 5067 5064 5062 5060 5057 5054 5052 5052 5052 5051 5051 5050 5049 5048 5048 5049 5048 5047 5047 5048 5051 5054 5055 5054 5054 5055 5059 5065 5071 5072 5074 5078 5083 5084 5084 5087 5091 5096 5103 5110 5117 5124 5130 5137 5141 5143 5146 5145 5143 5149 5156 5161 5169 5177 5184
5090 5085 5080 5075 5071 5068 5066 5064 5061 5058 5056 5053 5050 5047 5046 5045 5045 5045 5044 5042 5041 5040 5040 5040 5040 5037 5036 5038 5040 5043 5044 5044 5043 5043 5046 5052 5056 5058 5061 5065 5067 5066 5068 5071 5074 5079 5087 5092 5098 5105 5111 5118 5124 5127 5127 5126 5128 5137 5143 5147 5154 5162 5168
5084 5080 5074 5069 5065 5061 5058 5057 5056 5053 5051 5048 5045 5042 5039 5038 5038 5038 5036 5034 5034 5034 5033 5032 5031 5030 5029 5029 5031 5033 5034 5034 5034 5034 5036 5039 5042 5046 5050 5052 5051 5051 5054 5057 5059 5065 5071 5075 5080 5086 5091 5098 5105 5109 5109 5111 5116 5123 5127 5131 5140 5148 5154
5078 5074 5069 5063 5059 5055 5051 5050 5050 5049 5046 5043 5040 5037 5034 5032 5031 5030 5028 5028 5028 5028 5027 5025 5024 5024 5024 5023 5024 5025 5026 5026 5026 5026 5028 5030 5032 5036 5038 5039 5038 5039 5042 5045 5048 5052 5055 5059 5064 5068 5072 5079 5086 5090 5093 5096 5102 5107 5111 5118 5126 5133 5138
5072 5068 5064 5058 5054 5050 5046 5044 5044 5043 5041 5039 5036 5032 5028 5027 5025 5023 5021 5022 5022 5021 5020 5020 5019 5019 5019 5019 5019 5018 5018 5019 5020 5020 5021 5022 5025 5028 5028 5027 5029 5031 5033 5035 5038 5040 5043 5047 5051 5054 5058 5064 5069 5075 5078 5082 5086 5092 5098 5104 5112 5119 5123
5067 5063 5059 5054 5049 5045 5042 5039 5038 5037 5036 5034 5031 5027 5023 5022 5020 5017 5015 5016 5016 5015 5014 5015 5014 5013 5014 5014 5014 5014 5013 5014 5014 5015 5016 5017 5019 5021 5020 5020 5021 5023 5024 5027 5029 5031 5033 5037 5040 5043 5047 5052 5057 5062 5065 5068 5073 5079 5085 5090 5097 5104 5109
5063 5059 5055 5051 5045 5040 5036 5035 5033 5031 5030 5029 5026 5022 5019 5017 5015 5013 5011 5011 5011 5010 5010 5010 5009 5009 5009 5010 5010 5010 5010 5010 5010 5011 5012 5013 5014 5014 5014 5014 5016 5017 5018 5020 5022 5024 5026 5029 5032 5035 5038 5042 5046 5050 5054 5057 5062 5068 5073 5079 5085 5089 5095
5060 5056 5052 5048 5042 5036 5032 5029 5028 5026 5024 5023 5021 5018 5016 5013 5012 5010 5008 5007 5007 5006 5006 5006 5006 5005 5006 5006 5007 5007 5006 5006 5007 5007 5008 5009 5009 5009 5010 5010 5011 5012 5014 5015 5016 5018 5021 5023 5025 5028 5032 5035 5038 5042 5045 5049 5053 5058 5063 5069 5074 5078 5083
5056 5053 5049 5044 5039 5034 5028 5025 5023 5021 5019 5018 5016 5014 5012 5010 5008 5007 5006 5005 5004 5003 5003 5003 5002 5003 5003 5003 5004 5004 5004 5004 5004 5004 5005 5005 5005 5005 5006 5007 5008 5009 5010 5011 5012 5014 5016 5018 5020 5023 5026 5029 5032 5035 5038 5042 5046 5050 5055 5059 5064 5068 5072
5053 5049 5046 5042 5037 5031 5026 5021 5018 5017 5016 5014 5012 5010 5009 5007 5006 5005 5003 5002 5001 5001 5000 5000 5001 5001 5001 5001 5001 5001 5001 5001 5001 5001 5001 5001 5001 5001 5003 5004 5005 5006 5007 5008 5009 5011 5012 5014 5016 5018 5021 5024 5026 5030 5033 5036 5040 5044 5048 5052 5056 5060 5065
5050 5047 5043 5040 5035 5030 5024 5019 5015 5014 5013 5011 5009 5008 5006 5005 5004 5003 5002 5000 4999 4999 4999 4999 5000 5000 5000 4999 4999 4999 4999 4999 4999 4999 4999 4999 4998 4999 5000 5002 5003 5004 5004 5005 5006 5008 5010 5011 5013 5015 5018 5020 5023 5026 5029 5032 5035 5039 5043 5047 5051 5055 5059
5049 5045 5041 5037 5033 5028 5023 5018 5013 5011 5010 5009 5007 5006 5004 5003 5002 5002 5001 4999 4998 4997 4998 4999 4999 4999 4998 4998 4998 4997 4997 4997 4997 4997 4997 4997 4997 4998 4999 5000 5002 5002 5003 5004 5005 5006 5008 5010 5011 5013 5015 5018 5020 5023 5026 5029 5032 5035 5039 5043 5046 5051 5055
5044 5041 5038 5035 5030 5026 5022 5017 5012 5009 5008 5007 5005 5004 5003 5002 5001 5000 4999 4998 4998 4998 4999 4999 4998 4998 4997 4997 4996 4996 4996 4996 4996 4996 4996 4996 4997 4997 4998 5000 5001 5001 5002 5003 5004 5006 5007 5008 5010 5012 5014 5016 5018 5021 5024 5026 5030 5033 5037 5040 5044 5049 5053
5038 5035 5033 5031 5027 5022 5018 5015 5011 5008 5006 5005 5004 5003 5002 5001 5000 4999 4998 4997 4998 4998 4999 4998 4997 4996 4996 4996 4995 4995 4995 4995 4995 4995 4995 4995 4996 4997 4998 4999 5000 5001 5002 5003 5004 5005 5007 5008 5010 5011 5013 5015 5018 5020 5023 5026 5029 5032 5036 5039 5043 5048 5052
5034 5030 5027 5025 5023 5019 5015 5012 5009 5007 5005 5004 5002 5001 5001 5000 4999 4998 4997 4997 4998 4998 4998 4997 4996 4995 4994 4994 4994 4994 4994 4994 4994 4994 4994 4994 4995 4996 4997 4998 4999 5001 5002 5003 5004 5005 5007 5008 5010 5012 5013 5016 5018 5020 5023 5026 5029 5032 5035 5039 5043 5047 5051
5032 5028 5024 5021 5019 5017 5013 5010 5008 5006 5004 5003 5001 5000 4999 4999 4998 4997 4997 4997 4997 4997 4996 4996 4995 4994 4993 4994 4994 4994 4994 4994 4994 4994 4994 4994 4995 4996 4997 4998 4999 5000 5002 5003 5004 5006 5007 5009 5010 5012 5014 5016 5018 5021 5023 5026 5029 5032 5036 5039 5043 5047 5051
5029 5026 5023 5019 5016 5014 5011 5008 5006 5005 5003 5001 5000 4999 4998 4998 4997 4996 4996 4996 4996 4996 4995 4995 4994 4993 4993 4993 4993 4993 4993 4993 4994 4994 4994 4995 4996 4997 4998 4999 5000 5000 5002 5003 5004 5006 5008 5009 5011 5013 5015 5017 5019 5021 5024 5027 5030 5033 5036 5039 5043 5047 5051
5026 5022 5020 5017 5014 5012 5009 5006 5004 5002 5001 5000 4999 4998 4997 4997 4996 4995 4995 4995 4995 4994 4994 4994 4994 4992 4992 4993 4993 4993 4993 4993 4994 4994 4995 4995 4996 4997 4999 5000 5000 5001 5002 5004 5005 5007 5008 5010 5012 5014 5016 5018 5020 5022 5025 5027 5030 5033 5036 5040 5043 5047 5051
5029 5022 5018 5016 5014 5011 5009 5006 5003 5001 5000 4999 4998 4997 4996 4996 4995 4995 4994 4994 4994 4994 4993 4993 4993 4992 4992 4992 4992 4992 4993 4993 4994 4994 4995 4996 4997 4998 5000 5001 5001 5002 5004 5005 5006 5008 5009 5011 5013 5015 5017 5019 5021 5023 5025 5028 5030 5033 5037 5040 5044 5047 5051
5031 5024 5018 5014 5012 5010 5008 5005 5002 5000 4998 4997 4996 4996 4995 4995 4994 4994 4994 4993 4993 4993 4993 4993 4992 4992 4992 4992 4992 4992 4993 4993 4994 4994 4995 4996 4997 4999 5000 5001 5002 5003 5004 5006 5007 5009 5010 5012 5013 5015 5017 5019 5021 5024 5026 5028 5031 5034 5037 5040 5044 5047 5051
Wind_Speed
82 82 82 82 82 82 82 82 81 82 81 81 81 81 81 81 81 81 81 81 81 82 83 84 85 86 88 90 91 92 94 95 96 98 99 100 101 102 102 102 104 105 101 98 96 93 90 91 92 93 93 93 93 93 93 94 94 95 95 96 95 95 95
83 84 84 84 84 84 84 84 83 83 83 82 82 82 82 82 82 81 81 80 80 80 81 81 81 82 83 85 87 88 90 91 93 94 95 96 98 100 101 102 104 105 105 103 101 98 94 93 94 94 94 95 95 95 95 95 96 96 97 97 97 97 97
86 86 86 86 86 86 87 86 86 86 86 85 85 84 84 84 84 83 82 82 81 81 81 81 80 80 81 82 83 84 86 87 89 91 92 93 95 97 98 100 102 104 106 105 104 102 98 96 97 97 96 96 97 97 97 97 97 98 98 98 99 99 99
88 89 89 89 89 89 89 89 89 88 88 88 88 88 87 87 86 86 85 84 83 83 83 82 81 81 81 82 81 81 82 84 85 87 89 91 92 94 95 97 99 101 104 105 105 104 100 98 99 99 98 98 99 98 99 99 99 99 99 100 100 100 101
89 90 90 91 91 91 91 91 91 91 91 91 91 91 90 90 89 89 88 87 87 86 85 85 83 83 83 83 82 81 81 82 84 85 86 88 89 91 92 94 96 98 101 104 104 104 102 100 100 101 99 100 101 101 100 101 101 101 101 101 101 102 102
87 88 88 89 90 91 91 92 92 93 93 93 94 94 93 93 92 92 91 90 90 89 89 88 86 85 85 85 83 83 83 83 84 84 85 85 86 88 90 91 92 94 96 99 102 103 103 101 100 101 100 100 101 102 103 103 102 102 102 102 102 103 103
84 85 86 87 87 88 89 90 90 91 92 93 94 95 95 95 95 95 94 93 92 91 91 90 89 88 88 88 87 86 86 86 86 85 85 85 86 87 88 89 89 91 92 94 97 99 101 101 100 100 100 100 101 102 103 103 103 103 103 103 103 104 104
83 83 84 84 84 85 85 86 87 87 89 90 92 93 95 95 96 97 96 96 95 94 93 92 91 91 90 91 90 90 89 89 89 88 87 87 87 87 88 88 88 88 89 90 92 93 96 98 99 99 99 100 100 102 102 101 102 104 104 104 104 105 105
81 81 81 81 81 81 81 82 82 83 84 86 87 89 91 92 94 95 96 96 96 95 95 94 93 93 92 93 93 92 92 91 91 91 91 90 90 90 89 89 88 88 88 87 88 89 90 93 95 95 97 98 100 101 100 100 101 102 103 104 105 105 106
78 78 77 77 77 77 77 77 78 78 80 81 83 85 86 88 89 91 92 93 94 94 94 95 95 95 95 95 95 94 94 93 93 94 94 93 93 93 92 91 90 90 88 88 87 86 87 89 90 90 92 93 95 97 99 100 101 101 102 103 105 105 105
72 72 72 72 71 71 72 72 73 74 75 77 79 81 82 83 83 85 86 87 88 90 91 92 94 95 95 96 96 96 96 96 96 96 96 96 96 95 95 94 93 92 91 90 89 87 87 87 87 87 87 88 89 91 95 98 100 101 101 102 103 103 103
68 67 67 67 67 67 67 68 69 70 71 72 74 76 78 79 79 79 80 80 82 84 86 88 90 91 93 94 94 95 97 98 98 98 99 99 98 98 97 96 95 94 93 93 92 91 90 88 87 86 86 85 85 87 90 93 96 98 99 100 102 102 101
64 64 64 64 63 62 62 62 62 63 64 66 67 68 70 73 74 73 73 74 76 78 80 82 84 85 87 88 90 91 94 96 98 99 100 100 101 100 99 98 97 96 96 95 95 95 93 91 90 89 87 86 86 87 89 90 91 94 96 97 100 101 99
61 60 59 58 57 56 55 54 55 55 56 58 59 60 62 64 65 65 65 66 68 70 72 74 76 79 81 82 84 86 88 90 94 96 98 99 100 101 100 99 99 98 98 98 98 97 95 94 93 92 89 88 90 91 90 89 89 92 93 93 95 97 97
57 55 53 52 51 50 48 48 49 50 50 52 53 54 55 56 57 57 58 58 59 61 63 65 68 71 73 75 77 79 81 84 88 91 93 95 97 98 99 99 100 100 100 100 101 100 98 96 95 95 93 92 93 93 93 93 93 95 95 94 93 94 94
52 50 48 47 47 46 44 44 46 47 47 48 48 49 50 50 50 51 51 51 51 53 55 57 59 62 64 67 69 71 74 78 82 85 87 88 89 91 93 95 96 97 100 101 102 102 100 99 98 97 96 95 96 96 96 97 99 100 99 97 95 94 93
48 45 44 44 44 44 42 42 43 44 44 43 44 45 46 45 45 45 45 45 46 48 49 50 52 54 57 59 61 63 65 68 73 76 79 79 79 81 83 86 87 90 94 98 100 101 101 101 100 99 98 98 98 99 100 101 103 103 103 101 99 97 95
44 42 41 41 41 41 41 39 39 39 39 40 41 42 43 42 41 41 41 42 43 44 45 45 46 49 51 53 54 54 56 59 62 65 67 68 68 69 71 73 76 80 84 87 90 93 95 97 98 99 100 100 100 101 103 105 105 105 105 104 102 101 99
42 38 38 38 38 39 40 38 36 35 36 36 38 39 40 39 39 38 38 40 40 40 41 42 43 44 46 48 48 47 48 50 52 53 54 55 57 58 59 60 64 69 72 75 78 81 84 87 90 93 96 98 99 101 104 106 106 106 107 106 104 103 102
40 36 35 35 36 37 39 38 35 33 33 34 35 37 38 38 37 37 38 38 37 35 36 38 39 39 40 42 42 42 41 42 43 44 44 45 46 47 47 50 53 57 60 63 66 69 73 76 79 83 86 90 92 95 98 101 104 105 106 106 106 105 105
39 35 32 33 34 36 38 38 35 31 31 32 33 35 36 36 35 36 36 33 31 32 32 32 33 33 34 36 37 37 37 36 36 37 37 37 37 37 39 42 44 46 49 52 55 58 61 65 68 71 75 79 82 85 88 92 95 98 100 102 103 104 105
39 34 31 31 34 37 38 38 35 32 30 31 32 33 34 33 31 32 32 29 27 28 27 25 25 27 28 30 32 33 33 32 32 32 32 31 31 31 34 36 37 39 41 43 45 48 51 53 57 60 64 67 70 73 76 80 84 87 90 92 95 97 99
38 32 28 29 33 37 38 38 36 34 32 30 30 30 30 28 27 27 27 25 24 23 20 18 19 20 21 22 25 27 28 28 27 27 26 26 26 26 28 31 32 33 34 35 36 39 41 43 46 48 51 55 57 60 64 68 71 75 78 81 84 87 89
36 30 27 27 30 35 39 39 37 35 32 29 26 26 25 23 22 22 22 21 19 16 13 13 14 14 16 18 21 23 23 22 22 21 20 20 20 20 23 26 27 27 28 28 29 31 32 34 36 38 41 44 46 49 52 56 59 62 66 69 71 74 77
35 29 26 26 29 33 38 40 38 34 30 27 24 22 20 18 18 19 19 17 13 11 10 10 12 14 16 17 18 19 19 18 17 16 16 15 14 15 19 22 23 23 24 24 24 26 27 29 31 32 35 37 40 42 45 48 51 54 56 59 61 63 64
34 29 25 25 27 31 36 40 39 33 28 25 22 19 17 16 16 17 15 11 8 9 10 13 15 16 15 15 15 15 15 14 13 12 12 12 10 11 16 19 19 20 21 21 22 23 24 26 27 29 31 34 36 38 41 43 46 48 50 52 53 55 56
34 28 24 23 24 28 33 37 37 32 27 24 20 17 16 15 14 15 13 9 8 10 12 14 15 14 13 12 13 13 12 11 11 10 11 10 9 10 14 16 16 17 18 19 20 21 21 22 24 26 27 30 32 35 37 39 41 43 44 45 46 48 50
34 28 24 21 22 24 28 31 33 30 25 22 19 16 15 14 13 13 12 9 9 12 13 14 14 12 10 11 11 11 11 10 9 8 9 8 8 9 12 13 13 14 15 15 16 16 17 18 20 22 23 26 28 30 32 35 36 37 38 40 42 43 44
37 29 24 21 21 23 24 25 27 27 24 21 18 15 13 13 12 12 12 10 9 12 15 14 12 9 8 9 9 9 9 9 8 8 7 8 8 9 10 11 11 11 12 12 13 13 15 16 17 19 20 22 24 26 28 30 32 34 35 37 38 39 39
43 35 29 24 22 23 24 22 21 22 21 20 18 15 13 12 12 13 13 13 12 14 15 13 10 8 6 6 7 7 7 7 8 8 8 8 9 10 11 11 11 11 12 13 14 14 15 16 17 18 19 20 22 24 26 27 29 31 33 34 35 36 37
46 40 34 30 25 24 23 22 19 18 17 16 16 16 14 12 11 11 12 14 15 14 12 11 9 7 5 5 6 6 6 6 8 9 9 9 11 12 12 12 12 12 13 14 15 15 16 16 17 18 19 21 22 24 26 27 29 30 31 32 33 34 35
47 41 36 33 29 25 23 20 17 16 15 14 13 14 14 13 11 10 10 13 14 11 9 9 9 6 5 5 6 6 6 7 8 9 9 10 12 12 13 13 13 14 14 14 15 15 16 16 17 18 19 21 22 24 25 26 28 29 30 31 32 33 34
49 42 37 34 31 27 24 21 17 14 14 13 12 12 12 12 12 10 9 11 12 8 7 9 9 7 5 5 6 6 7 7 7 8 8 9 10 11 12 12 13 14 14 14 15 15 16 16 17 18 19 20 21 23 23 24 26 27 28 30 31 32 33
50 45 39 35 32 28 25 22 19 16 13 12 11 11 11 11 12 11 10 10 10 7 6 8 8 7 6 6 6 6 7 8 8 8 8 9 9 10 11 12 13 14 14 14 15 15 16 17 17 18 19 20 21 22 23 24 25 26 27 29 30 31 32
46 43 39 34 31 28 24 20 18 17 14 12 10 10 10 10 11 11 10 10 9 7 7 8 8 7 7 7 7 7 7 8 8 9 9 10 10 10 11 12 13 14 14 15 15 16 16 17 18 19 20 21 22 23 24 25 27 27 28 29 30 30 31
44 41 38 35 31 28 24 18 15 15 14 12 10 10 10 10 10 10 10 9 9 8 8 8 8 8 8 8 8 8 8 8 9 10 10 11 11 11 11 13 14 14 15 15 15 16 17 17 18 19 20 21 22 24 25 26 27 27 28 29 30 31 32
Wind_Direction
281 281 280 279 278 277 276 275 274 273 272 271 270 269 269 268 267 267 266 266 265 265 264 263 263 262 262 261 261 261 260 260 260 259 259 259 258 257 256 256 255 254 252 249 247 245 243 243 243 242 242 242 241 241 241 241 241 242 242 242 240 239 238
281 280 280 279 278 277 276 275 274 273 272 272 271 270 269 268 267 266 265 265 264 264 263 263 262 262 261 260 260 260 259 259 259 259 258 258 257 257 256 255 255 254 253 251 249 246 243 243 243 242 242 242 241 240 240 240 240 240 241 242 242 241 240
282 281 280 279 278 277 276 275 274 273 273 272 271 270 269 268 267 266 265 264 264 263 262 262 262 261 261 260 259 259 259 258 258 258 258 257 257 256 256 255 255 254 253 251 250 249 245 243 243 242 241 242 241 240 240 240 239 239 239 240 241 241 241
282 281 280 279 278 277 276 275 274 273 272 272 270 269 268 268 267 266 266 265 264 263 262 261 261 260 260 260 259 259 258 258 257 257 257 257 256 256 255 255 255 254 253 252 251 250 248 245 243 242 241 241 242 241 240 239 239 239 239 239 239 240 240
283 282 280 279 278 277 276 275 274 273 272 271 270 269 268 267 266 266 265 264 264 263 262 261 261 260 260 259 259 258 258 258 257 257 256 256 256 256 255 255 254 254 253 252 251 250 249 246 245 244 241 241 241 241 240 240 239 239 239 238 238 239 239
284 283 281 280 279 277 276 275 274 272 271 270 269 269 268 267 266 265 264 263 263 262 262 261 261 260 260 259 259 258 258 257 257 256 256 256 255 255 255 254 254 254 253 253 252 251 249 248 246 245 243 241 241 241 241 240 239 238 238 238 238 238 239
286 285 283 282 280 279 277 276 274 273 271 270 269 268 267 266 265 264 263 263 262 262 261 261 260 260 260 259 259 258 258 257 257 256 256 256 255 255 255 254 254 254 253 253 253 252 251 249 247 246 245 243 242 242 241 240 240 239 239 238 238 238 239
288 286 285 283 282 280 279 277 275 274 272 271 269 268 267 266 264 263 263 262 261 261 261 260 260 260 259 259 259 258 257 257 257 257 256 256 256 255 255 254 254 253 253 253 253 252 252 251 249 248 247 245 243 242 242 241 241 241 240 239 238 238 238
290 288 287 285 283 282 280 278 277 275 273 272 270 268 267 266 264 264 263 262 261 260 260 260 259 259 258 258 258 258 257 257 257 257 256 256 256 255 255 255 254 254 253 252 252 252 252 251 251 249 249 247 246 245 243 242 242 241 241 240 240 239 238
292 290 288 287 285 283 282 280 278 276 275 273 271 269 267 266 265 264 263 262 262 261 260 259 258 258 257 257 257 257 257 257 256 256 256 256 255 255 255 254 254 254 253 253 252 251 251 251 251 250 250 249 248 247 246 243 242 242 241 241 241 240 239
294 292 290 288 286 284 282 281 279 277 276 274 273 271 270 268 266 265 264 263 262 261 260 259 258 258 257 256 256 256 256 256 255 255 255 255 255 255 254 254 254 253 253 253 252 251 251 250 250 250 250 249 249 249 248 246 245 243 242 242 242 241 240
297 294 292 290 288 286 284 282 281 279 277 276 274 273 272 271 268 267 265 264 263 261 260 259 258 257 257 256 256 256 255 255 255 254 254 254 254 254 254 254 253 253 253 253 253 252 251 250 250 250 250 250 249 248 249 248 247 246 244 243 243 242 241
299 297 295 292 290 288 286 285 283 281 279 277 276 275 274 273 271 270 268 266 264 262 261 260 259 257 257 256 256 255 255 255 255 254 254 254 254 254 253 253 254 253 253 252 252 252 252 251 251 250 249 250 250 249 248 248 248 247 246 244 244 243 242
302 300 297 295 293 291 289 287 285 283 281 280 279 277 276 275 274 273 271 269 267 265 264 262 261 259 257 256 256 256 255 255 255 254 254 254 254 254 254 254 254 254 253 253 252 251 251 250 250 250 249 249 249 249 249 249 248 248 247 245 244 243 242
305 302 300 297 295 293 291 289 287 285 283 282 282 281 279 279 278 276 275 273 272 270 268 265 263 261 259 258 257 256 256 256 255 255 254 254 254 254 254 254 254 254 253 253 253 252 250 249 249 249 248 248 248 249 249 249 249 248 247 246 245 244 242
308 305 302 299 297 295 293 291 289 287 286 285 284 283 281 281 280 279 278 277 275 272 270 268 266 265 262 260 258 257 257 257 256 255 255 254 254 255 254 254 254 253 253 252 252 252 251 250 249 248 247 247 247 247 247 248 248 248 247 247 245 244 243
311 308 304 301 299 296 294 292 290 288 288 287 285 283 282 282 281 280 280 278 275 273 271 269 268 267 265 262 260 259 258 258 258 258 256 255 255 255 255 254 253 253 253 252 252 251 251 250 249 248 247 246 246 246 246 246 246 246 247 247 246 245 244
314 311 307 303 300 297 294 292 290 289 289 288 286 285 284 284 282 281 280 277 275 273 272 271 269 268 267 265 263 261 260 260 259 259 259 257 256 254 254 254 253 253 252 252 252 251 250 250 249 248 247 246 245 245 245 245 245 246 246 246 246 246 245
317 313 308 304 301 297 294 293 292 292 291 290 288 288 288 286 285 283 280 276 275 274 273 271 269 268 268 267 266 264 262 262 261 260 260 259 256 254 253 253 252 252 251 251 251 250 249 249 248 247 247 245 245 244 244 245 245 245 245 246 246 246 245
320 316 310 305 302 299 296 296 297 296 294 293 292 291 289 288 287 284 280 278 277 275 273 271 269 268 268 268 268 267 265 263 262 261 259 258 257 255 253 251 250 251 250 250 250 249 248 247 246 246 245 244 243 243 243 244 244 244 245 245 245 245 245
323 318 313 308 304 301 299 300 301 300 298 295 294 292 290 290 289 286 283 281 280 276 271 268 266 265 264 264 266 267 265 263 262 261 259 258 257 255 253 251 250 250 250 249 248 248 247 246 245 244 243 243 242 241 241 242 242 243 243 244 244 244 244
325 321 317 312 307 303 302 302 304 305 302 299 297 295 293 292 291 288 285 284 279 274 270 266 262 260 260 261 262 262 263 262 261 260 260 260 258 255 253 253 252 251 250 249 248 247 246 244 243 242 242 241 241 240 240 240 240 241 241 242 242 243 243
326 322 318 313 309 306 304 305 308 308 306 304 300 297 295 294 291 288 286 283 277 272 270 267 263 261 262 264 262 259 259 259 260 260 260 261 260 257 256 256 255 254 253 251 249 247 245 243 241 240 239 238 238 237 237 238 238 239 239 239 240 241 241
328 323 319 315 311 307 306 307 309 310 309 308 305 300 297 294 291 286 282 278 276 277 278 275 272 273 276 274 267 261 259 259 259 259 258 257 258 260 261 261 260 259 256 254 251 249 246 243 240 238 237 236 235 234 234 235 235 236 236 237 238 238 239
330 325 321 318 314 310 307 308 311 313 314 313 310 306 300 296 291 284 278 276 281 291 300 302 298 293 287 279 270 263 259 257 257 257 254 252 256 264 266 265 264 262 258 255 253 250 247 243 239 236 235 234 233 232 232 232 232 232 233 233 233 234 235
333 329 325 321 317 313 310 310 313 316 318 317 314 310 305 300 294 286 279 281 298 316 324 320 306 292 282 275 266 260 256 253 251 250 247 245 249 259 262 261 260 256 253 250 249 247 243 239 236 233 231 230 229 229 229 229 230 230 229 229 229 229 230
336 330 326 323 320 316 313 311 312 316 319 318 316 314 311 305 297 291 290 298 317 328 325 310 293 281 275 270 261 252 248 245 242 241 240 239 240 247 250 250 246 242 240 239 238 237 235 233 231 229 227 226 225 224 224 224 225 225 225 224 224 224 224
339 334 329 326 322 318 315 312 310 313 317 316 315 316 314 307 297 293 297 309 318 317 307 290 278 272 269 263 254 245 240 237 233 232 235 236 235 236 239 239 235 232 231 229 228 227 226 225 224 223 221 220 219 218 218 219 219 218 217 217 217 217 217
342 339 336 332 326 322 321 317 311 311 314 313 313 314 311 306 302 298 302 313 310 294 282 271 265 264 260 253 247 241 236 230 224 219 220 224 225 225 227 228 225 222 221 218 216 215 215 214 214 212 211 210 210 210 210 211 211 210 209 209 209 208 207
343 342 340 339 335 332 330 325 315 311 310 308 308 310 305 302 301 296 298 302 289 270 263 259 254 251 248 242 236 232 224 218 213 207 204 211 216 214 213 212 210 208 206 205 205 205 205 205 204 202 201 200 199 199 200 201 201 201 201 201 201 199 199
343 341 340 340 340 339 336 331 321 313 308 301 297 298 297 294 291 284 281 278 265 252 251 253 244 235 232 228 221 213 202 198 201 199 197 202 208 209 207 203 200 201 200 200 200 200 199 200 198 196 195 195 193 193 193 194 195 195 194 194 194 194 195
343 340 338 338 340 340 339 335 325 316 309 300 290 285 284 284 281 272 263 259 251 243 250 253 237 218 216 217 208 200 193 187 191 195 196 200 205 207 206 201 196 196 197 197 197 196 195 196 196 194 193 193 192 192 193 193 194 194 192 192 193 193 195
343 341 338 338 339 340 339 336 329 319 308 299 287 276 271 272 273 266 256 252 246 239 247 249 232 206 201 204 194 192 192 186 186 191 195 200 204 203 200 197 192 191 191 190 190 190 190 190 190 190 190 190 190 190 190 190 192 192 192 191 192 193 193
342 340 338 337 338 340 340 334 328 323 313 299 286 274 264 263 267 264 256 250 245 235 237 239 225 202 193 192 183 184 189 187 186 188 190 196 200 194 189 187 186 184 184 183 182 182 182 183 183 183 183 184 184 184 184 185 187 189 189 188 188 189 190
343 339 336 335 335 337 339 332 322 317 313 303 288 277 268 261 261 261 257 252 249 243 234 227 215 199 189 185 180 181 184 184 186 187 189 194 196 192 186 185 185 184 183 182 182 183 183 183 184 183 183 184 184 184 184 186 188 189 188 187 186 186 187
348 343 337 333 333 335 338 334 319 309 307 301 289 279 272 263 259 257 253 247 245 241 229 215 207 198 189 184 183 182 181 181 182 185 189 193 194 192 191 191 191 189 186 184 184 184 184 183 183 183 183 182 183 184 186 188 188 187 187 187 186 185 185